| time (UTC) | temp F | wind direction | speed MPH | gust MPH | rain 1hr in | rain 24hr in | rain mn in | humidity % | barometer mb |
| 20260902172308 | 73 | 240 | 2.0 | 10.0 | 0.00 | 0.00 | 0.00 | 47 | 1021.3 |
| 20260902171804 | 73 | 224 | 4.0 | 9.0 | 0.00 | 0.00 | 0.00 | 48 | 1021.3 |
| 20260902171303 | 73 | 215 | 5.0 | 7.0 | 0.00 | 0.00 | 0.00 | 48 | 1021.3 |
| 20260902170803 | 73 | 232 | 3.0 | 6.0 | 0.00 | 0.00 | 0.00 | 48 | 1021.1 |
| 20260902170303 | 74 | 192 | 2.0 | 6.0 | 0.00 | 0.00 | 0.00 | 47 | 1021.1 |
| 20260902165803 | 74 | 260 | 3.0 | 6.0 | 0.00 | 0.00 | 0.00 | 49 | 1021.0 |
| 20260902165308 | 74 | 296 | 1.0 | 8.0 | 0.00 | 0.00 | 0.00 | 48 | 1021.0 |
| 20260902164803 | 74 | 350 | 2.0 | 8.0 | 0.00 | 0.00 | 0.00 | 48 | 1021.1 |
| 20260902164304 | 74 | 302 | 3.0 | 7.0 | 0.00 | 0.00 | 0.00 | 48 | 1021.0 |
| 20260902163804 | 75 | 290 | 4.0 | 7.0 | 0.00 | 0.00 | 0.00 | 47 | 1021.0 |
| 20260902163303 | 75 | 305 | 4.0 | 8.0 | 0.00 | 0.00 | 0.00 | 47 | 1021.0 |
| 20260902162306 | 76 | 269 | 3.0 | 7.0 | 0.00 | 0.00 | 0.00 | 47 | 1021.0 |
| 20260902160304 | 76 | 234 | 2.0 | 7.0 | 0.00 | 0.00 | 0.00 | 43 | 1020.9 |
| 20260902155306 | 77 | 227 | 5.0 | 12.0 | 0.00 | 0.00 | 0.00 | 41 | 1020.8 |
| 20260902153803 | 77 | 215 | 4.0 | 10.0 | 0.00 | 0.00 | 0.00 | 39 | 1020.7 |
| 20260902152803 | 77 | 234 | 6.0 | 13.0 | 0.00 | 0.00 | 0.00 | 39 | 1020.7 |
| 20260902151303 | 76 | 293 | 5.0 | 12.0 | 0.00 | 0.00 | 0.00 | 38 | 1020.7 |
| 20260902150803 | 76 | 274 | 5.0 | 13.0 | 0.00 | 0.00 | 0.00 | 39 | 1020.7 |
| 20260902150303 | 76 | 250 | 4.0 | 13.0 | 0.00 | 0.00 | 0.00 | 38 | 1020.6 |
| 20260902145305 | 76 | 264 | 6.0 | 12.0 | 0.00 | 0.00 | 0.00 | 39 | 1020.6 |
| 20260902144804 | 76 | 245 | 6.0 | 12.0 | 0.00 | 0.00 | 0.00 | 39 | 1020.6 |
| 20260902144304 | 76 | 249 | 6.0 | 12.0 | 0.00 | 0.00 | 0.00 | 39 | 1020.7 |
| 20260902142803 | 78 | 239 | 5.0 | 13.0 | 0.00 | 0.00 | 0.00 | 38 | 1020.6 |
| 20260902141804 | 79 | 241 | 6.0 | 12.0 | 0.00 | 0.00 | 0.00 | 38 | 1020.6 |
| 20260902141304 | 79 | 260 | 4.0 | 12.0 | 0.00 | 0.00 | 0.00 | 37 | 1020.6 |
| 20260902140303 | 78 | 229 | 5.0 | 12.0 | 0.00 | 0.00 | 0.00 | 37 | 1020.5 |
| 20260902135804 | 77 | 263 | 3.0 | 8.0 | 0.00 | 0.00 | 0.00 | 36 | 1020.5 |
| 20260902134804 | 76 | 34 | 6.0 | 9.0 | 0.00 | 0.00 | 0.00 | 39 | 1020.6 |
| 20260902134304 | 76 | 342 | 5.0 | 10.0 | 0.00 | 0.00 | 0.00 | 41 | 1020.6 |
| 20260902133304 | 76 | 332 | 6.0 | 10.0 | 0.00 | 0.00 | 0.00 | 42 | 1020.5 |
| 20260902132804 | 76 | 344 | 4.0 | 10.0 | 0.00 | 0.00 | 0.00 | 42 | 1020.7 |
| 20260902131804 | 77 | 36 | 2.0 | 8.0 | 0.00 | 0.00 | 0.00 | 40 | 1020.7 |
| 20260902130803 | 78 | 321 | 2.0 | 6.0 | 0.00 | 0.00 | 0.00 | 35 | 1020.9 |
| 20260902125803 | 78 | 186 | 1.0 | 6.0 | 0.00 | 0.00 | 0.00 | 33 | 1020.8 |
| 20260902125305 | 78 | 211 | 3.0 | 6.0 | 0.00 | 0.00 | 0.00 | 37 | 1020.9 |
| 20260902124804 | 78 | 229 | 1.0 | 9.0 | 0.00 | 0.00 | 0.00 | 37 | 1020.9 |
| 20260902123304 | 77 | 210 | 3.0 | 8.0 | 0.00 | 0.00 | 0.00 | 39 | 1021.2 |
| 20260902122804 | 77 | 347 | 5.0 | 8.0 | 0.00 | 0.00 | 0.00 | 39 | 1021.2 |
| 20260902121804 | 76 | 233 | 2.0 | 10.0 | 0.00 | 0.00 | 0.00 | 39 | 1021.4 |
| 20260902121303 | 76 | 238 | 3.0 | 8.0 | 0.00 | 0.00 | 0.00 | 40 | 1021.3 |
| 20260902120804 | 76 | 288 | 3.0 | 9.0 | 0.00 | 0.00 | 0.00 | 41 | 1021.3 |
| 20260902120304 | 76 | 266 | 4.0 | 10.0 | 0.00 | 0.00 | 0.00 | 42 | 1021.4 |
| 20260902115804 | 75 | 293 | 3.0 | 10.0 | 0.00 | 0.00 | 0.00 | 42 | 1021.4 |
| 20260902114804 | 75 | 247 | 2.0 | 8.0 | 0.00 | 0.00 | 0.00 | 48 | 1021.4 |
| 20260902114304 | 74 | 168 | 5.0 | 10.0 | 0.00 | 0.00 | 0.00 | 50 | 1021.4 |
| 20260902113804 | 74 | 309 | 5.0 | 10.0 | 0.00 | 0.00 | 0.00 | 51 | 1021.5 |
| 20260902113304 | 74 | 9 | 5.0 | 12.0 | 0.00 | 0.00 | 0.00 | 52 | 1021.5 |
| 20260902112804 | 73 | 328 | 5.0 | 12.0 | 0.00 | 0.00 | 0.00 | 53 | 1021.5 |
| 20260902111803 | 73 | 4 | 4.0 | 10.0 | 0.00 | 0.00 | 0.00 | 52 | 1021.6 |
| 20260902104304 | 73 | 325 | 4.0 | 9.0 | 0.00 | 0.00 | 0.00 | 52 | 1021.7 |
| 20260902103804 | 73 | 340 | 5.0 | 9.0 | 0.00 | 0.00 | 0.00 | 53 | 1021.7 |
| 20260902103304 | 72 | 346 | 4.0 | 10.0 | 0.00 | 0.00 | 0.00 | 55 | 1021.8 |
| 20260902102307 | 73 | 349 | 5.0 | 10.0 | 0.00 | 0.00 | 0.00 | 55 | 1021.8 |
| 20260902101803 | 72 | 335 | 3.0 | 13.0 | 0.00 | 0.00 | 0.00 | 57 | 1021.9 |
| 20260902101304 | 72 | 321 | 7.0 | 13.0 | 0.00 | 0.00 | 0.00 | 56 | 1021.9 |
| 20260902100803 | 71 | 325 | 5.0 | 10.0 | 0.00 | 0.00 | 0.00 | 58 | 1021.9 |
| 20260902100310 | 71 | 344 | 5.0 | 10.0 | 0.00 | 0.00 | 0.00 | 59 | 1021.8 |
| 20260902095306 | 72 | 334 | 5.0 | 10.0 | 0.00 | 0.00 | 0.00 | 58 | 1021.7 |
| 20260902094804 | 72 | 314 | 3.0 | 8.0 | 0.00 | 0.00 | 0.00 | 58 | 1021.8 |
| 20260902094303 | 71 | 309 | 3.0 | 8.0 | 0.00 | 0.00 | 0.00 | 59 | 1021.7 |
| 20260902092803 | 71 | 295 | 3.0 | 6.0 | 0.00 | 0.00 | 0.00 | 57 | 1021.8 |
| 20260902091803 | 72 | 123 | 1.0 | 3.0 | 0.00 | 0.00 | 0.00 | 57 | 1021.9 |
| 20260902091303 | 71 | 116 | 1.0 | 3.0 | 0.00 | 0.00 | 0.00 | 57 | 1021.9 |
| 20260902090304 | 70 | 341 | 2.0 | 3.0 | 0.00 | 0.00 | 0.00 | 59 | 1022.0 |
| 20260902085804 | 70 | 30 | 1.0 | 3.0 | 0.00 | 0.00 | 0.00 | 61 | 1022.1 |
| 20260902085306 | 69 | 36 | 1.0 | 3.0 | 0.00 | 0.00 | 0.00 | 63 | 1022.2 |
| 20260902082804 | 66 | 145 | 1.0 | 5.0 | 0.00 | 0.00 | 0.00 | 71 | 1022.4 |
| 20260902082309 | 66 | 146 | 1.0 | 5.0 | 0.00 | 0.00 | 0.00 | 71 | 1022.1 |
| 20260902081804 | 65 | 145 | 1.0 | 5.0 | 0.00 | 0.00 | 0.00 | 72 | 1022.1 |
| 20260902080804 | 64 | 144 | 1.0 | 3.0 | 0.00 | 0.00 | 0.00 | 75 | 1022.1 |
| 20260902080304 | 63 | 144 | 2.0 | 3.0 | 0.00 | 0.00 | 0.00 | 76 | 1022.1 |
| 20260902075804 | 63 | 144 | 3.0 | 3.0 | 0.00 | 0.00 | 0.00 | 77 | 1022.3 |
| 20260902074304 | 61 | 156 | 1.0 | 3.0 | 0.00 | 0.00 | 0.00 | 81 | 1022.2 |
| 20260902071804 | 57 | 0 | 2.0 | 3.0 | 0.00 | 0.00 | 0.00 | 86 | 1022.2 |
| 20260902070803 | 56 | 0 | 3.0 | 3.0 | 0.00 | 0.00 | 0.00 | 88 | 1022.2 |
| 20260902065804 | 55 | 0 | 3.0 | 5.0 | 0.00 | 0.00 | 0.00 | 88 | 1022.2 |
| 20260902063804 | 55 | 0 | 4.0 | 6.0 | 0.00 | 0.00 | 0.00 | 89 | 1022.0 |
| 20260902063304 | 54 | 0 | 3.0 | 6.0 | 0.00 | 0.00 | 0.00 | 89 | 1022.1 |
| 20260902062803 | 54 | 0 | 3.0 | 5.0 | 0.00 | 0.00 | 0.00 | 90 | 1022.2 |
| 20260902062305 | 54 | 0 | 3.0 | 5.0 | 0.00 | 0.00 | 0.00 | 91 | 1022.2 |
| 20260902061804 | 53 | 0 | 3.0 | 5.0 | 0.00 | 0.00 | 0.00 | 91 | 1022.2 |
| 20260902061304 | 53 | 0 | 3.0 | 5.0 | 0.00 | 0.00 | 0.00 | 91 | 1022.2 |
| 20260902060804 | 52 | 0 | 2.0 | 3.0 | 0.00 | 0.00 | 0.00 | 91 | 1022.2 |
| 20260902060304 | 52 | 0 | 2.0 | 5.0 | 0.00 | 0.00 | 0.00 | 91 | 1022.3 |
| 20260902055306 | 52 | 0 | 3.0 | 5.0 | 0.00 | 0.00 | 0.00 | 91 | 1022.2 |
| 20260902054304 | 52 | 0 | 3.0 | 5.0 | 0.00 | 0.00 | 0.00 | 91 | 1022.2 |
| 20260902053804 | 52 | 146 | 1.0 | 5.0 | 0.00 | 0.00 | 0.00 | 92 | 1022.3 |
| 20260902053304 | 51 | 142 | 3.0 | 5.0 | 0.00 | 0.00 | 0.00 | 91 | 1022.1 |
| 20260902052803 | 51 | 159 | 3.0 | 3.0 | 0.00 | 0.00 | 0.00 | 91 | 1022.2 |
| 20260902052306 | 51 | 161 | 1.0 | 3.0 | 0.00 | 0.00 | 0.00 | 91 | 1022.0 |
| 20260902050304 | 51 | 153 | 1.0 | 2.0 | 0.00 | 0.00 | 0.00 | 91 | 1022.0 |
| 20260902045804 | 52 | 153 | 1.0 | 3.0 | 0.00 | 0.00 | 0.00 | 92 | 1022.0 |
| 20260902044804 | 51 | 153 | 2.0 | 5.0 | 0.00 | 0.00 | 0.00 | 91 | 1021.9 |
| 20260902044304 | 51 | 153 | 3.0 | 5.0 | 0.00 | 0.00 | 0.00 | 91 | 1022.0 |
| 20260902043803 | 52 | 159 | 2.0 | 3.0 | 0.00 | 0.00 | 0.00 | 91 | 1021.9 |
| 20260902041804 | 52 | 148 | 1.0 | 3.0 | 0.00 | 0.00 | 0.00 | 91 | 1021.8 |
| 20260902040304 | 51 | 148 | 1.0 | 3.0 | 0.00 | 0.00 | 0.00 | 91 | 1021.7 |
| 20260902035305 | 51 | 148 | 2.0 | 3.0 | 0.00 | 0.00 | 0.00 | 90 | 1021.6 |
| 20260902034803 | 51 | 149 | 3.0 | 3.0 | 0.00 | 0.00 | 0.00 | 90 | 1021.7 |
| 20260902034303 | 52 | 161 | 1.0 | 3.0 | 0.00 | 0.00 | 0.00 | 90 | 1021.6 |
| 20260902032804 | 53 | 161 | 1.0 | 3.0 | 0.00 | 0.00 | 0.00 | 90 | 1021.6 |
| 20260902032306 | 53 | 161 | 1.0 | 3.0 | 0.00 | 0.00 | 0.00 | 90 | 1021.7 |
| 20260902031804 | 53 | 161 | 2.0 | 3.0 | 0.00 | 0.00 | 0.00 | 91 | 1021.6 |
| 20260902031304 | 52 | 151 | 1.0 | 3.0 | 0.00 | 0.00 | 0.00 | 90 | 1021.7 |
| 20260902030304 | 52 | 158 | 2.0 | 3.0 | 0.00 | 0.00 | 0.00 | 90 | 1021.7 |
| 20260902025306 | 52 | 159 | 2.0 | 3.0 | 0.00 | 0.00 | 0.00 | 90 | 1021.8 |
| 20260902024304 | 53 | 158 | 1.0 | 3.0 | 0.00 | 0.00 | 0.00 | 89 | 1021.9 |
| 20260902023304 | 53 | 161 | 2.0 | 3.0 | 0.00 | 0.00 | 0.00 | 89 | 1021.9 |
| 20260902022803 | 53 | 153 | 2.0 | 3.0 | 0.00 | 0.00 | 0.00 | 89 | 1021.9 |
| 20260902022306 | 53 | 152 | 2.0 | 3.0 | 0.00 | 0.00 | 0.00 | 89 | 1021.9 |
| 20260902021804 | 53 | 157 | 2.0 | 3.0 | 0.00 | 0.00 | 0.00 | 89 | 1021.9 |
| 20260902021304 | 53 | 157 | 2.0 | 3.0 | 0.00 | 0.00 | 0.00 | 89 | 1022.0 |
| 20260902020803 | 53 | 157 | 0.0 | 3.0 | 0.00 | 0.00 | 0.00 | 89 | 1022.0 |
| 20260902020304 | 53 | 157 | 2.0 | 3.0 | 0.00 | 0.00 | 0.00 | 89 | 1022.0 |
| 20260902015804 | 53 | 157 | 2.0 | 3.0 | 0.00 | 0.00 | 0.00 | 89 | 1022.1 |
| 20260902015306 | 53 | 157 | 0.0 | 0.0 | 0.00 | 0.00 | 0.00 | 89 | 1022.1 |
| 20260902014804 | 53 | 157 | 0.0 | 0.0 | 0.00 | 0.00 | 0.00 | 88 | 1022.0 |
| 20260902014304 | 54 | 157 | 0.0 | 0.0 | 0.00 | 0.00 | 0.00 | 88 | 1022.1 |
| 20260902013303 | 54 | 157 | 0.0 | 3.0 | 0.00 | 0.00 | 0.00 | 88 | 1022.1 |
| 20260902012803 | 54 | 157 | 1.0 | 3.0 | 0.00 | 0.00 | 0.00 | 88 | 1022.1 |
| 20260902012309 | 54 | 157 | 1.0 | 3.0 | 0.00 | 0.00 | 0.00 | 88 | 1022.1 |
| 20260902011803 | 54 | 157 | 1.0 | 3.0 | 0.00 | 0.00 | 0.00 | 88 | 1022.1 |
| 20260902010804 | 54 | 157 | 2.0 | 3.0 | 0.00 | 0.00 | 0.00 | 88 | 1022.2 |
| 20260902010304 | 54 | 157 | 2.0 | 3.0 | 0.00 | 0.00 | 0.00 | 88 | 1022.2 |
| 20260902005306 | 54 | 157 | 1.0 | 3.0 | 0.00 | 0.00 | 0.00 | 88 | 1022.2 |
| 20260902004804 | 54 | 157 | 1.0 | 3.0 | 0.00 | 0.00 | 0.00 | 87 | 1022.2 |
| 20260902004304 | 55 | 157 | 1.0 | 3.0 | 0.00 | 0.00 | 0.00 | 88 | 1022.2 |
| 20260902003804 | 55 | 157 | 1.0 | 3.0 | 0.00 | 0.00 | 0.00 | 87 | 1022.2 |
| 20260902003304 | 55 | 157 | 1.0 | 3.0 | 0.00 | 0.00 | 0.00 | 87 | 1022.2 |
| 20260902002804 | 55 | 157 | 1.0 | 3.0 | 0.00 | 0.00 | 0.00 | 87 | 1022.2 |
| 20260902001804 | 55 | 157 | 1.0 | 2.0 | 0.00 | 0.00 | 0.00 | 87 | 1022.2 |
| 20260902000804 | 55 | 157 | 1.0 | 2.0 | 0.00 | 0.00 | 0.00 | 86 | 1022.2 |
| 20260902000304 | 55 | 157 | 0.0 | 3.0 | 0.00 | 0.00 | 0.00 | 86 | 1022.3 |
| 20260901235804 | 55 | 157 | 1.0 | 3.0 | 0.00 | 0.00 | 0.00 | 86 | 1022.2 |
| 20260901235307 | 56 | 155 | 1.0 | 3.0 | 0.00 | 0.00 | 0.00 | 86 | 1022.2 |
| 20260901234803 | 56 | 159 | 1.0 | 3.0 | 0.00 | 0.00 | 0.00 | 86 | 1022.2 |
| 20260901234303 | 56 | 0 | 2.0 | 5.0 | 0.00 | 0.00 | 0.00 | 86 | 1022.2 |
| 20260901233804 | 56 | 0 | 2.0 | 5.0 | 0.00 | 0.00 | 0.00 | 86 | 1022.1 |
| 20260901233304 | 56 | 0 | 1.0 | 3.0 | 0.00 | 0.00 | 0.00 | 86 | 1022.2 |
| 20260901231304 | 57 | 0 | 0.0 | 3.0 | 0.00 | 0.00 | 0.00 | 84 | 1022.2 |
| 20260901230804 | 57 | 0 | 1.0 | 3.0 | 0.00 | 0.00 | 0.00 | 84 | 1022.3 |
| 20260901230303 | 57 | 0 | 2.0 | 3.0 | 0.00 | 0.00 | 0.00 | 84 | 1022.3 |
| 20260901225804 | 57 | 0 | 3.0 | 3.0 | 0.00 | 0.00 | 0.00 | 84 | 1022.4 |
| 20260901224803 | 58 | 0 | 0.0 | 0.0 | 0.00 | 0.00 | 0.00 | 83 | 1022.4 |
| 20260901222804 | 58 | 0 | 0.0 | 0.0 | 0.00 | 0.00 | 0.00 | 84 | 1022.4 |
| 20260901222306 | 58 | 0 | 0.0 | 0.0 | 0.00 | 0.00 | 0.00 | 83 | 1022.5 |
| 20260901221804 | 58 | 0 | 0.0 | 0.0 | 0.00 | 0.00 | 0.00 | 83 | 1022.5 |
| 20260901220310 | 58 | 0 | 0.0 | 0.0 | 0.00 | 0.00 | 0.00 | 82 | 1022.5 |
| 20260901215804 | 58 | 0 | 0.0 | 0.0 | 0.00 | 0.00 | 0.00 | 82 | 1022.7 |
| 20260901214804 | 58 | 0 | 0.0 | 0.0 | 0.00 | 0.00 | 0.00 | 82 | 1022.8 |
| 20260901214303 | 58 | 0 | 0.0 | 0.0 | 0.00 | 0.00 | 0.00 | 82 | 1022.8 |
| 20260901212804 | 59 | 0 | 0.0 | 0.0 | 0.00 | 0.00 | 0.00 | 81 | 1022.7 |
| 20260901212306 | 59 | 0 | 0.0 | 0.0 | 0.00 | 0.00 | 0.00 | 81 | 1022.7 |
| 20260901211804 | 59 | 0 | 0.0 | 0.0 | 0.00 | 0.00 | 0.00 | 81 | 1022.7 |
| 20260901211303 | 59 | 0 | 0.0 | 0.0 | 0.00 | 0.00 | 0.00 | 81 | 1022.7 |
| 20260901210303 | 59 | 0 | 0.0 | 0.0 | 0.00 | 0.00 | 0.00 | 80 | 1022.6 |
| 20260901205804 | 59 | 0 | 0.0 | 0.0 | 0.00 | 0.00 | 0.00 | 80 | 1022.6 |
| 20260901205306 | 59 | 0 | 0.0 | 0.0 | 0.00 | 0.00 | 0.00 | 80 | 1022.6 |
| 20260901204803 | 60 | 0 | 0.0 | 0.0 | 0.00 | 0.00 | 0.00 | 79 | 1022.6 |
| 20260901204303 | 60 | 0 | 0.0 | 0.0 | 0.00 | 0.00 | 0.00 | 78 | 1022.6 |
| 20260901203803 | 60 | 0 | 0.0 | 0.0 | 0.00 | 0.00 | 0.00 | 78 | 1022.5 |
| 20260901202803 | 61 | 0 | 0.0 | 0.0 | 0.00 | 0.00 | 0.00 | 77 | 1022.6 |
| 20260901202306 | 61 | 0 | 0.0 | 0.0 | 0.00 | 0.00 | 0.00 | 77 | 1022.5 |
| 20260901201803 | 61 | 0 | 0.0 | 0.0 | 0.00 | 0.00 | 0.00 | 77 | 1022.5 |
| 20260901200803 | 61 | 0 | 0.0 | 0.0 | 0.00 | 0.00 | 0.00 | 76 | 1022.4 |
| 20260901200303 | 61 | 0 | 0.0 | 0.0 | 0.00 | 0.00 | 0.00 | 75 | 1022.5 |
| 20260901195305 | 62 | 0 | 0.0 | 0.0 | 0.00 | 0.00 | 0.00 | 74 | 1022.5 |
| 20260901194804 | 62 | 0 | 0.0 | 0.0 | 0.00 | 0.00 | 0.00 | 73 | 1022.4 |
| 20260901194304 | 62 | 0 | 0.0 | 0.0 | 0.00 | 0.00 | 0.00 | 73 | 1022.4 |
| 20260901193804 | 63 | 0 | 0.0 | 0.0 | 0.00 | 0.00 | 0.00 | 72 | 1022.3 |
| 20260901193303 | 63 | 0 | 0.0 | 0.0 | 0.00 | 0.00 | 0.00 | 72 | 1022.3 |
| 20260901192306 | 63 | 0 | 0.0 | 0.0 | 0.00 | 0.00 | 0.00 | 70 | 1022.3 |
| 20260901191804 | 64 | 0 | 0.0 | 0.0 | 0.00 | 0.00 | 0.00 | 69 | 1022.2 |
| 20260901191304 | 64 | 0 | 0.0 | 0.0 | 0.00 | 0.00 | 0.00 | 69 | 1022.1 |
| 20260901190303 | 65 | 0 | 0.0 | 0.0 | 0.00 | 0.00 | 0.00 | 68 | 1022.0 |
| 20260901185306 | 66 | 0 | 0.0 | 0.0 | 0.00 | 0.00 | 0.00 | 66 | 1021.9 |
| 20260901184303 | 66 | 0 | 0.0 | 0.0 | 0.00 | 0.00 | 0.00 | 64 | 1021.9 |
| 20260901183803 | 67 | 0 | 0.0 | 0.0 | 0.00 | 0.00 | 0.00 | 63 | 1021.9 |
| 20260901183303 | 67 | 0 | 0.0 | 0.0 | 0.00 | 0.00 | 0.00 | 63 | 1021.9 |
| 20260901181803 | 68 | 0 | 0.0 | 0.0 | 0.00 | 0.00 | 0.00 | 61 | 1021.7 |
| 20260901181304 | 68 | 0 | 0.0 | 0.0 | 0.00 | 0.00 | 0.00 | 60 | 1021.6 |
| 20260901180803 | 68 | 0 | 0.0 | 0.0 | 0.00 | 0.00 | 0.00 | 60 | 1021.5 |
| 20260901180304 | 69 | 0 | 0.0 | 0.0 | 0.00 | 0.00 | 0.00 | 59 | 1021.5 |
| 20260901175803 | 69 | 0 | 0.0 | 3.0 | 0.00 | 0.00 | 0.00 | 58 | 1021.5 |
| 20260901175305 | 69 | 0 | 0.0 | 3.0 | 0.00 | 0.00 | 0.00 | 58 | 1021.5 |
| 20260901174803 | 69 | 0 | 1.0 | 3.0 | 0.00 | 0.00 | 0.00 | 57 | 1021.5 |
| 20260901174303 | 69 | 0 | 2.0 | 5.0 | 0.00 | 0.00 | 0.00 | 57 | 1021.4 |
| 20260901173803 | 69 | 0 | 2.0 | 5.0 | 0.00 | 0.00 | 0.00 | 56 | 1021.4 |
| 20260901173304 | 70 | 0 | 2.0 | 6.0 | 0.00 | 0.00 | 0.00 | 56 | 1021.4 |